GW3756 Weather Reports


time (UTC)temp
C
wind
direction
speed
KPH
gust
KPH
rain 1hr
cm
rain 24hr
cm
rain mn
cm
humidity
%
barometer
mb
20260509033517 10 231 3.2 11.3 0.00 0.03 0.03 86 1006.4
20260509032516 10 209 1.6 6.4 0.00 0.03 0.03 85 1006.5
20260509031516 10 347 1.6 3.2 0.00 0.03 0.03 85 1006.6
20260509030515 10 201 3.2 9.7 0.00 0.03 0.03 84 1006.7
20260509025516 10 288 0.0 3.2 0.00 0.03 0.03 84 1006.6
20260509024516 10 112 1.6 9.7 0.00 0.03 0.03 83 1006.7
20260509023537 10 261 3.2 9.7 0.00 0.03 0.03 82 1006.8
20260509022517 11 180 3.2 12.9 0.00 0.03 0.03 81 1006.7
20260509021536 11 172 3.2 11.3 0.00 0.03 0.03 80 1006.9
20260509020516 11 201 3.2 9.7 0.00 0.03 0.03 79 1006.9
20260509015516 11 178 3.2 11.3 0.00 0.03 0.03 78 1006.7
20260509014535 12 222 3.2 12.9 0.00 0.03 0.03 76 1006.8
20260509013517 12 159 4.8 14.5 0.00 0.03 0.03 75 1006.8
20260509012610 12 149 4.8 14.5 0.00 0.03 0.03 74 1006.5
20260509011536 13 170 3.2 9.7 0.00 0.03 0.03 73 1006.4
20260509010516 13 207 3.2 9.7 0.00 0.03 0.03 72 1006.3
20260509005536 13 248 3.2 11.3 0.00 0.03 0.03 71 1006.2
20260509004516 13 218 3.2 11.3 0.00 0.03 0.03 69 1006.2
20260509003517 13 228 3.2 9.7 0.00 0.03 0.03 67 1006.0
20260509002533 14 202 4.8 12.9 0.00 0.03 0.03 65 1006.0
20260509001536 15 209 6.4 14.5 0.00 0.03 0.03 62 1006.0
20260509000516 15 225 3.2 11.3 0.00 0.03 0.03 60 1005.9
20260508235516 15 254 1.6 9.7 0.00 0.03 0.03 60 1005.9
20260508234518 15 241 4.8 12.9 0.00 0.03 0.03 58 1005.8
20260508233515 15 210 4.8 14.5 0.00 0.03 0.03 55 1006.0
20260508232517 15 194 4.8 14.5 0.00 0.03 0.03 50 1006.0
20260508231517 16 204 4.8 11.3 0.00 0.03 0.03 49 1006.0
20260508230516 16 235 3.2 11.3 0.00 0.03 0.03 48 1006.0
20260508225543 16 190 6.4 14.5 0.00 0.03 0.03 46 1006.0
20260508224515 16 213 4.8 12.9 0.00 0.03 0.03 44 1005.9
20260508223535 16 215 4.8 14.5 0.00 0.03 0.03 44 1005.9
20260508222517 16 215 4.8 14.5 0.00 0.03 0.03 42 1006.1
20260508221517 17 213 3.2 17.7 0.00 0.03 0.03 40 1006.1
20260508220533 16 238 4.8 11.3 0.00 0.03 0.03 40 1006.1
20260508215516 17 227 6.4 14.5 0.00 0.03 0.03 39 1006.2
20260508214515 18 232 4.8 12.9 0.00 0.03 0.03 34 1006.1
20260508213535 17 242 3.2 12.9 0.00 0.03 0.03 34 1006.1
20260508212531 17 235 8.0 22.5 0.00 0.03 0.03 32 1006.2
20260508211516 17 251 4.8 12.9 0.00 0.03 0.03 33 1006.2
20260508210516 17 229 4.8 14.5 0.00 0.03 0.03 33 1006.3
20260508205516 17 255 4.8 14.5 0.00 0.03 0.03 34 1006.5
20260508204536 17 235 3.2 12.9 0.00 0.03 0.03 33 1006.5
20260508203515 17 216 4.8 12.9 0.00 0.03 0.03 33 1006.7
20260508202515 17 258 4.8 11.3 0.00 0.03 0.03 32 1006.7
20260508201557 17 236 6.4 16.1 0.00 0.03 0.03 32 1007.0
20260508200537 16 206 3.2 11.3 0.00 0.03 0.03 36 1007.2
20260508195522 16 220 4.8 17.7 0.00 0.03 0.03 35 1007.3
20260508194517 17 270 3.2 9.7 0.00 0.03 0.03 33 1007.4
20260508193516 16 229 3.2 9.7 0.00 0.03 0.03 34 1007.5
20260508192516 15 284 1.6 4.8 0.00 0.03 0.03 37 1007.6
20260508191516 15 113 3.2 11.3 0.00 0.03 0.03 37 1007.8
20260508190515 14 86 4.8 11.3 0.00 0.03 0.03 40 1007.9
20260508185532 15 13 3.2 6.4 0.00 0.03 0.03 38 1008.0
20260508184517 15 80 1.6 11.3 0.00 0.03 0.03 37 1008.1
20260508183536 15 359 3.2 11.3 0.00 0.03 0.03 39 1008.2
20260508182525 16 350 4.8 17.7 0.00 0.03 0.03 32 1008.3
20260508181516 17 258 3.2 11.3 0.00 0.03 0.03 29 1008.5
20260508180516 17 295 1.6 4.8 0.00 0.03 0.03 30 1008.6
20260508175535 16 197 6.4 17.7 0.00 0.03 0.03 30 1008.6
20260508174515 15 321 3.2 9.7 0.00 0.03 0.03 32 1009.0
20260508173522 16 260 3.2 11.3 0.00 0.03 0.03 29 1009.1
20260508172536 15 301 1.6 9.7 0.00 0.03 0.03 36 1009.3
20260508171517 15 63 1.6 6.4 0.00 0.03 0.03 36 1009.3
20260508170516 14 8 1.6 6.4 0.00 0.03 0.03 41 1009.5
20260508165516 15 352 4.8 16.1 0.00 0.03 0.03 42 1009.7
20260508164515 14 324 1.6 4.8 0.00 0.03 0.03 38 1009.8
20260508163537 13 345 3.2 11.3 0.00 0.03 0.03 48 1009.9
20260508162517 15 331 1.6 6.4 0.00 0.03 0.03 31 1009.9
20260508161537 15 282 3.2 12.9 0.00 0.03 0.03 31 1009.9
20260508160516 14 358 3.2 9.7 0.00 0.03 0.03 32 1010.0
20260508155516 14 306 3.2 9.7 0.00 0.03 0.03 33 1010.2
20260508154515 13 276 1.6 9.7 0.00 0.03 0.03 34 1010.1
20260508153517 14 263 1.6 4.8 0.00 0.03 0.03 35 1010.2
20260508152557 14 271 1.6 9.7 0.00 0.03 0.03 34 1010.4
20260508151517 14 305 1.6 4.8 0.00 0.03 0.03 39 1010.4
20260508150516 13 235 1.6 9.7 0.00 0.03 0.03 38 1010.4
20260508145556 13 218 3.2 11.3 0.00 0.03 0.03 42 1010.5
20260508144518 13 320 0.0 3.2 0.00 0.03 0.03 42 1010.6
20260508143516 12 278 1.6 6.4 0.00 0.03 0.03 43 1010.6
20260508142515 12 303 1.6 4.8 0.00 0.03 0.03 45 1010.7
20260508141517 12 303 1.6 6.4 0.00 0.03 0.03 46 1010.8
20260508140526 12 290 1.6 3.2 0.00 0.03 0.03 48 1010.9
20260508135517 11 292 1.6 6.4 0.00 0.03 0.03 49 1010.8
20260508134516 11 228 1.6 6.4 0.00 0.03 0.03 51 1010.9
20260508133516 11 359 0.0 3.2 0.00 0.03 0.03 54 1010.8
20260508132555 9 216 4.8 11.3 0.00 0.03 0.03 58 1011.0
20260508131515 9 289 1.6 3.2 0.00 0.03 0.03 61 1010.9
20260508130515 9 253 1.6 4.8 0.00 0.03 0.03 65 1010.8
20260508125517 8 294 3.2 6.4 0.00 0.03 0.03 65 1010.8
20260508124557 8 298 0.0 3.2 0.00 0.03 0.03 70 1010.8
20260508123516 7 240 3.2 6.4 0.00 0.03 0.03 74 1010.6
20260508122516 7 260 1.6 3.2 0.00 0.03 0.03 75 1010.5
20260508121531 7 275 0.0 3.2 0.00 0.03 0.03 77 1010.5
20260508120516 6 277 0.0 3.2 0.00 0.03 0.03 79 1010.5
20260508115515 6 0.0 0.0 0.00 0.03 0.03 81 1010.3
20260508114535 5 0.0 0.0 0.00 0.03 0.03 83 1010.3
20260508113517 5 0.0 0.0 0.00 0.03 0.03 85 1010.3
20260508112516 4 0.0 0.0 0.00 0.03 0.03 89 1010.2
20260508111516 3 0.0 0.0 0.00 0.03 0.03 95 1010.1
20260508110530 2 0.0 0.0 0.00 0.03 0.03 95 1010.2
20260508105531 2 0.0 0.0 0.00 0.03 0.03 95 1010.1
20260508104516 2 0.0 0.0 0.00 0.03 0.03 95 1010.1
20260508103515 2 0.0 0.0 0.00 0.03 0.03 95 1010.1
20260508102517 2 0.0 0.0 0.00 0.03 0.03 95 1010.1
20260508101530 2 0.0 0.0 0.00 0.03 0.03 95 1010.1
20260508100527 2 0.0 0.0 0.00 0.03 0.03 95 1010.1
20260508095516 2 0.0 0.0 0.00 0.03 0.03 95 1010.2
20260508094516 3 0.0 0.0 0.00 0.03 0.03 94 1010.2
20260508093532 3 0.0 0.0 0.00 0.03 0.03 94 1010.2
20260508092516 3 0.0 0.0 0.00 0.03 0.03 94 1010.3
20260508091535 3 0.0 0.0 0.00 0.03 0.03 93 1010.3
20260508090517 3 0.0 0.0 0.03 0.03 0.03 92 1010.3
20260508085517 4 0.0 0.0 0.03 0.03 0.03 91 1010.3
20260508084516 5 0.0 0.0 0.03 0.03 0.03 89 1010.2
20260508083516 5 0.0 0.0 0.03 0.03 0.03 87 1010.2
20260508082515 5 247 1.6 4.8 0.03 0.03 0.03 87 1010.1
20260508081517 5 225 1.6 6.4 0.03 0.03 0.03 88 1010.3
20260508080517 5 0.0 0.0 0.00 0.00 0.00 89 1010.2
20260508075517 5 0.0 0.0 0.00 0.00 0.00 89 1010.1
20260508074516 5 0.0 0.0 0.00 0.00 0.00 88 1010.2
20260508073536 5 0.0 0.0 0.00 0.00 0.00 89 1010.4
20260508072515 5 0.0 0.0 0.00 0.00 0.00 89 1010.3
20260508071517 5 0.0 0.0 0.00 0.00 0.00 89 1010.2
20260508070517 5 331 0.0 1.6 0.00 0.00 0.00 88 1010.5
20260508065537 5 0.0 0.0 0.00 0.00 0.00 88 1010.7
20260508064516 5 0.0 0.0 0.00 0.00 0.00 86 1010.6
20260508063516 5 0.0 0.0 0.00 0.00 0.00 86 1010.7
20260508062516 5 0.0 0.0 0.00 0.00 0.00 83 1010.7
20260508061516 5 0.0 0.0 0.00 0.00 0.00 82 1010.8
20260508060556 5 0.0 0.0 0.00 0.00 0.00 82 1010.9
20260508055515 5 0.0 0.0 0.00 0.00 0.00 82 1011.1
20260508054515 5 0.0 0.0 0.00 0.00 0.00 82 1011.1
20260508053517 5 0.0 0.0 0.00 0.00 0.00 81 1011.1
20260508052516 5 0.0 0.0 0.00 0.00 0.00 81 1011.2
20260508051516 5 0.0 0.0 0.00 0.00 0.00 81 1011.1
20260508050541 5 0.0 0.0 0.00 0.00 0.00 82 1011.0
20260508045545 5 0.0 0.0 0.00 0.00 0.00 82 1010.9
20260508044517 5 0.0 0.0 0.00 0.00 0.00 83 1010.8
20260508043517 6 0.0 0.0 0.00 0.00 0.00 82 1010.7
20260508042525 6 0.0 0.0 0.00 0.00 0.00 79 1010.8
20260508041516 6 0.0 0.0 0.00 0.00 0.00 79 1010.9
20260508040516 6 0.0 0.0 0.00 0.00 0.00 77 1010.8
20260508035656 6 0.0 0.0 0.00 0.00 0.00 77 1010.9
20260508034515 6 0.0 0.0 0.00 0.00 0.00 77 1010.9